Temp
10 12 13 12 13 13 14 13 13 15 15 15 14 14 15 14 14 14 13 17 16 16 16 16 15 15 16 15 16 17 17 17 19 18 20 21 21 20 19 19 19 18 18 16 17
10 12 12 12 12 13 13 14 13 13 13 13 13 13 13 13 12 11 16 16 16 16 16 15 15 14 14 15 15 15 15 19 19 19 19 18 19 20 20 19 19 18 15 14 15
11 10 11 11 11 11 11 12 13 13 13 13 13 13 12 12 12 14 14 15 15 16 15 15 15 15 15 15 15 16 16 17 19 18 17 18 18 17 18 18 18 18 15 12 12
10 10 10 10 11 9 10 12 12 12 13 13 13 13 13 13 16 16 15 15 15 15 14 14 14 15 15 15 16 17 16 17 18 17 18 18 16 17 16 19 19 17 14 12 12
10 10 10 11 11 10 10 13 13 13 12 11 12 12 12 12 12 15 15 15 14 14 14 14 15 16 16 16 17 16 16 17 17 16 15 15 15 16 15 16 16 15 13 12 13
10 10 11 11 11 12 12 13 13 13 13 11 11 10 12 12 15 15 15 14 14 13 14 14 15 15 14 16 16 16 16 16 16 15 15 16 15 15 17 16 15 14 12 12 13
10 10 10 10 11 12 13 13 13 12 12 12 10 10 10 12 14 14 14 14 14 14 14 15 15 16 15 16 15 16 16 16 15 15 15 14 15 13 18 16 15 13 12 13 13
10 10 10 10 11 11 13 14 13 12 12 11 10 10 9 13 13 13 13 13 13 13 14 14 15 15 16 16 16 16 16 15 16 14 15 15 15 18 16 13 15 13 12 12 13
9 9 9 10 11 11 12 13 13 12 11 10 10 10 10 12 12 13 13 13 13 13 14 14 14 14 15 15 15 14 15 14 16 14 14 13 15 18 14 12 12 11 12 12 13
8 8 8 9 10 11 12 13 12 11 10 10 10 10 10 12 12 12 12 12 13 13 13 14 11 12 11 13 15 14 13 14 16 15 13 13 12 16 16 14 12 11 11 11 13
6 6 7 8 10 10 12 13 10 10 10 11 12 11 12 11 11 11 12 12 12 13 12 12 11 10 13 12 15 16 15 15 17 15 14 12 13 16 17 13 12 13 14 13 13
4 5 5 8 9 10 11 9 10 9 7 8 9 9 11 11 11 10 12 11 11 10 11 11 10 11 14 12 12 13 14 14 15 14 13 12 12 14 15 14 16 16 17 16 16
4 4 4 5 9 9 8 9 9 8 6 9 8 9 9 10 11 10 9 9 10 9 9 9 12 11 11 12 12 12 12 13 15 14 12 11 16 16 16 14 15 15 17 17 16
4 4 3 4 9 6 8 9 8 7 3 9 10 10 9 10 10 10 10 11 10 10 8 9 10 12 11 12 11 11 12 14 14 15 12 13 15 15 17 17 17 16 14 15 14
4 4 4 3 4 6 8 8 7 7 12 12 9 10 9 10 9 9 10 11 10 9 9 11 9 10 10 11 11 12 12 12 12 12 11 12 12 12 14 16 17 18 15 13 13
3 3 3 3 2 5 5 6 8 9 11 9 9 8 9 9 10 8 10 10 10 10 10 9 8 9 10 8 10 9 10 9 8 8 6 10 13 19 17 19 19 19 17 16 12
3 4 3 3 3 5 4 6 9 10 10 9 7 8 9 8 9 8 8 8 8 6 8 9 8 8 8 9 9 10 9 7 7 4 9 10 11 16 16 16 16 17 17 15 13
2 2 3 3 3 3 2 7 9 8 9 10 9 8 8 8 9 8 8 7 7 8 4 8 9 7 7 9 10 8 9 9 10 9 12 10 11 14 14 13 14 14 13 13 14
1 1 1 5 3 2 2 6 7 10 9 9 10 9 4 8 9 8 6 6 8 6 10 6 10 7 8 8 9 9 8 10 8 3 7 11 11 13 14 14 14 14 14 14 14
1 1 0 4 3 2 3 6 6 9 11 10 11 9 8 4 8 8 7 8 10 8 6 10 9 6 7 8 8 8 8 9 5 8 8 13 12 14 17 18 15 14 13 13 12
1 0 3 3 4 2 3 4 5 8 9 10 10 10 9 6 7 6 9 9 9 7 6 5 9 5 6 5 7 7 6 5 6 7 10 10 13 11 14 15 16 14 12 11 11
-1 -1 4 3 0 1 3 4 7 7 8 7 8 10 8 10 7 7 8 9 9 8 8 9 7 5 5 5 5 6 8 7 7 8 6 9 14 15 13 13 13 15 15 13 11
-3 0 3 2 -1 -2 1 2 3 3 5 5 7 7 8 9 9 10 10 10 9 9 9 8 7 7 8 6 3 2 6 8 7 7 6 10 15 12 13 15 15 15 16 13 11
-1 -2 -3 0 -1 -0 -0 0 2 2 2 4 5 5 6 7 7 9 8 9 8 9 11 10 7 8 10 10 6 5 2 6 7 6 14 12 16 16 16 15 15 15 13 13 12
-4 -4 -3 -2 -1 -3 -2 0 1 1 2 2 3 2 2 4 6 7 7 8 6 8 8 8 8 8 9 8 6 7 5 5 7 10 10 15 14 14 13 14 14 13 12 12 12
-3 -5 -5 -3 -2 -1 -0 -0 1 1 0 0 0 -0 1 1 2 4 2 5 6 3 5 5 7 7 9 9 9 9 7 7 9 9 10 11 10 11 11 12 11 10 10 9 9
-2 -2 -2 -2 -5 -4 -3 -1 1 1 2 1 -0 -0 0 2 1 1 2 2 3 3 5 5 6 8 9 10 9 7 9 8 6 6 9 9 11 12 12 11 6 4 3 3 3
Height
809 807 804 803 800 798 797 796 792 788 787 786 784 781 778 777 775 774 772 769 767 770 770 770 772 772 772 774 773 773 788 784 771 775 762 751 752 747 745 748 747 746 746 746 748
810 808 805 803 802 800 797 792 789 788 786 784 783 781 778 777 774 770 767 766 766 768 769 768 771 772 775 774 773 775 785 768 757 757 757 757 754 749 751 750 748 745 745 746 748
810 809 807 805 802 798 794 791 789 786 784 783 781 781 779 777 774 764 761 764 764 766 768 769 771 773 776 774 771 768 772 760 754 754 757 757 753 751 751 753 744 742 741 747 750
810 808 806 803 800 796 792 789 787 784 783 781 779 780 778 776 779 760 761 762 764 765 769 768 772 774 775 772 762 767 760 758 752 753 755 755 755 751 750 739 733 736 738 745 749
812 809 806 802 799 795 791 787 784 782 780 779 778 779 777 779 769 761 760 761 763 764 766 766 769 767 769 766 762 760 755 753 750 752 754 752 752 750 744 735 733 734 737 740 741
812 809 806 802 798 793 789 785 781 778 777 776 777 778 778 779 759 759 760 760 762 763 763 763 764 764 769 765 763 758 753 751 751 751 751 750 747 748 730 728 732 734 734 736 736
812 808 804 801 796 792 787 783 779 775 774 774 776 775 774 763 757 757 758 760 761 762 761 761 761 763 764 761 759 758 760 753 749 748 749 752 748 740 719 726 727 729 730 731 730
812 808 803 799 795 790 784 778 773 771 771 772 774 775 770 756 755 755 757 759 760 759 760 759 762 761 762 760 758 761 760 762 744 748 745 749 744 714 717 724 722 728 728 727 724
811 807 802 797 793 787 782 777 772 771 769 769 772 773 765 754 754 754 756 756 758 759 759 759 760 762 764 766 768 765 765 765 749 747 748 752 738 714 718 723 723 726 723 722 720
809 805 801 796 792 787 781 776 772 770 771 771 771 774 757 751 751 752 754 756 758 759 759 759 765 768 773 769 764 763 767 757 748 742 751 751 741 719 715 721 720 720 719 718 713
809 805 801 795 791 786 780 775 773 771 769 764 758 754 750 749 749 751 752 755 757 758 765 761 771 773 753 758 752 749 754 750 742 742 747 744 737 711 711 717 715 708 706 704 699
809 805 800 794 790 787 783 781 781 782 774 753 750 749 745 746 749 749 749 754 759 765 764 769 769 757 750 758 758 758 757 752 746 745 750 742 730 712 706 703 693 688 687 683 684
810 805 800 793 788 786 785 783 781 780 781 749 743 742 741 743 743 742 745 749 753 763 767 766 748 749 757 755 758 759 761 752 746 743 748 747 708 699 686 687 683 677 670 671 673
811 807 801 794 788 787 784 782 781 780 797 746 738 734 736 737 740 736 738 741 750 752 764 762 748 746 751 753 755 760 751 746 745 747 756 742 723 703 686 677 672 663 666 663 666
810 807 804 802 798 791 787 782 781 781 762 728 735 733 733 736 736 738 737 739 745 748 754 744 752 750 748 746 750 749 748 749 751 757 761 749 754 705 691 677 667 653 657 659 659
809 806 803 801 798 794 789 787 783 784 752 736 732 736 737 735 734 739 737 738 738 741 744 746 748 747 743 752 746 754 756 765 775 776 798 749 741 656 682 662 654 649 650 652 656
806 803 801 799 795 791 791 788 780 763 734 733 737 734 733 735 734 737 741 743 744 765 755 743 746 744 744 750 751 750 760 793 802 821 766 751 744 670 671 658 660 656 651 650 652
801 798 795 793 786 787 791 779 762 741 728 717 724 730 731 729 728 735 739 744 738 736 762 746 745 744 742 735 738 756 747 758 772 776 739 745 731 684 667 663 660 657 654 651 650
796 792 789 779 779 782 787 764 740 712 715 718 721 725 751 721 723 729 736 735 722 730 723 752 728 735 736 734 731 748 756 741 758 800 777 729 708 679 659 656 655 654 652 652 651
794 789 786 777 776 778 774 743 726 710 704 708 705 712 720 737 725 723 724 708 706 709 714 710 724 741 739 736 736 736 740 750 776 767 770 707 704 682 655 647 650 654 653 653 654
793 787 779 776 774 771 756 743 735 721 719 713 708 706 706 723 718 723 703 695 696 708 713 724 713 748 744 745 730 742 745 755 754 747 734 732 689 670 658 654 648 651 654 657 657
797 792 778 776 781 770 748 749 734 728 722 720 710 707 709 701 712 712 706 689 687 695 704 704 717 743 736 731 733 729 721 730 739 738 745 725 673 651 655 653 653 649 648 652 655
799 788 776 775 781 779 759 752 752 745 728 728 715 710 705 699 701 688 685 681 685 690 692 703 713 721 715 732 743 746 724 715 716 724 730 715 657 655 655 649 650 651 651 655 656
799 793 785 777 777 774 771 758 751 747 741 727 715 715 711 704 699 687 692 684 685 682 679 680 700 700 688 684 710 725 736 714 716 731 667 676 650 648 648 652 654 655 657 658 658
799 797 789 788 776 782 775 763 753 748 743 739 725 729 733 711 701 693 689 683 690 683 685 684 688 690 686 686 705 696 710 714 709 686 697 644 659 660 656 654 657 662 662 663 661
794 795 790 785 778 773 764 762 756 751 750 747 748 742 733 733 732 713 722 703 684 699 692 696 684 686 673 675 675 682 693 696 685 683 684 669 673 666 663 661 664 668 669 671 674
787 783 777 773 778 779 772 756 749 750 747 746 750 748 739 731 735 728 721 715 709 707 696 694 686 677 662 662 673 683 672 672 687 686 673 681 654 661 660 668 684 687 687 687 686
Wind_Speed
15 15 16 17 17 16 17 17 18 17 17 16 17 15 13 15 17 10 6 8 6 6 6 4 3 3 3 2 4 3 2 6 6 8 6 2 4 3 1 5 3 6 4 2 22
15 16 17 17 18 18 18 18 18 18 18 16 16 14 11 13 13 11 14 11 9 6 6 1 2 4 1 3 3 5 5 7 5 4 4 4 4 3 2 4 5 3 1 6 32
16 17 17 18 21 22 20 19 18 18 17 16 15 13 8 9 4 5 2 11 8 8 6 3 3 2 2 3 5 5 6 4 3 3 2 3 4 3 4 6 7 12 7 8 11
18 19 20 21 23 24 21 20 19 18 17 14 14 10 6 3 6 2 3 3 6 7 8 5 4 4 3 6 7 3 8 6 4 4 2 4 5 5 8 7 1 9 8 10 14
20 20 22 24 25 26 22 20 19 19 16 13 11 7 1 0 9 5 3 3 6 8 8 5 5 4 4 5 3 6 6 6 5 6 6 3 9 8 9 11 6 3 10 16 17
21 21 22 24 26 29 23 24 22 20 17 13 8 3 3 4 3 4 4 4 7 9 6 6 5 5 4 5 5 5 4 4 6 6 5 6 4 4 9 13 10 8 12 14 16
25 26 26 26 28 30 26 25 26 19 14 9 6 4 1 13 4 3 2 4 7 7 3 5 4 3 2 4 3 2 5 7 7 5 6 5 9 14 17 6 12 12 11 13 17
24 27 28 27 29 31 27 30 22 11 5 5 6 5 7 4 5 6 5 4 4 6 5 2 4 2 2 2 3 3 1 3 1 5 3 6 11 6 3 10 16 10 10 12 16
24 28 29 28 29 30 28 29 11 4 3 6 6 3 8 2 3 6 4 2 3 2 4 2 3 3 1 2 4 2 5 6 7 8 3 6 9 3 2 6 9 10 11 12 13
24 27 29 29 28 29 25 21 5 1 3 4 1 2 3 4 4 4 5 4 1 2 3 3 3 2 1 4 9 6 6 5 6 5 4 5 18 14 9 6 11 11 10 11 14
27 28 29 30 27 30 24 9 5 3 1 8 6 6 1 3 6 5 6 7 2 2 5 2 4 9 21 6 2 1 4 5 3 3 5 9 14 25 10 7 12 15 14 15 18
28 29 31 31 30 28 13 2 1 2 9 11 15 8 4 6 3 6 11 7 6 7 5 1 10 11 1 6 7 6 5 8 6 2 5 9 17 21 14 12 19 20 20 20 15
28 29 31 34 29 11 15 4 4 1 4 8 6 5 5 10 7 8 12 6 5 8 9 9 5 3 9 5 6 6 8 4 6 2 5 7 13 10 5 7 11 12 19 16 16
27 29 30 36 9 16 12 5 4 1 3 7 6 6 4 6 5 4 12 6 4 12 7 8 5 6 5 6 8 6 6 4 2 2 5 2 9 8 7 11 7 13 10 13 13
27 27 27 24 21 9 9 6 3 4 6 2 3 3 3 5 5 3 4 2 7 8 7 7 8 5 5 7 9 5 2 3 2 1 5 2 3 7 3 9 10 9 8 10 10
28 26 26 22 20 14 14 6 3 1 11 4 3 4 3 2 2 2 3 1 2 4 2 4 1 4 6 2 2 7 6 6 4 2 3 8 7 15 6 7 3 4 5 5 7
28 28 25 19 9 24 24 6 4 8 2 6 5 6 4 6 5 6 6 7 7 5 7 2 5 3 3 5 3 3 7 1 3 2 7 0 4 9 10 12 6 7 9 6 5
30 31 27 24 31 25 12 6 13 11 15 2 5 4 8 9 5 8 6 4 8 2 3 7 5 11 7 7 8 7 7 6 8 5 4 3 8 7 9 9 8 8 10 8 3
31 24 13 32 18 11 4 13 12 18 8 7 2 4 4 5 6 5 10 6 9 13 10 6 6 1 2 2 4 7 6 2 6 3 3 5 8 9 14 12 6 9 5 7 4
23 14 13 14 11 9 8 27 14 9 2 3 14 11 11 6 8 9 12 5 6 16 1 6 1 1 1 0 2 4 4 3 2 3 5 5 6 7 8 8 5 8 8 7 4
12 4 13 10 12 4 11 15 8 23 18 2 9 5 6 5 7 5 8 5 8 4 4 3 3 1 2 8 11 4 4 1 3 4 5 2 6 7 9 7 8 7 5 7 6
6 4 11 19 6 4 6 7 4 18 9 7 7 22 12 14 6 5 9 7 7 9 10 6 3 5 8 2 2 2 5 7 5 6 4 2 9 3 6 6 5 3 4 4 6
3 4 12 3 3 7 8 12 13 18 17 6 7 6 14 23 13 15 11 4 11 10 8 7 2 1 2 1 3 4 6 5 2 2 8 7 7 1 3 1 3 4 4 4 6
3 4 3 2 1 5 12 18 8 13 13 13 11 4 14 19 11 16 5 3 3 6 11 11 7 11 11 7 4 5 6 8 3 2 12 11 11 1 2 3 3 2 6 7 5
1 4 2 3 6 7 6 9 17 10 4 14 5 13 7 5 9 12 8 10 2 4 3 5 7 14 21 10 3 5 5 10 13 24 8 25 16 7 8 0 1 3 6 6 7
3 2 2 4 7 6 5 4 14 11 5 11 7 18 13 7 9 5 11 7 7 3 8 3 5 8 13 20 23 16 12 12 22 25 19 29 21 9 6 3 5 7 8 10 9
5 8 4 8 3 2 4 5 8 6 4 2 8 13 17 12 19 19 13 13 15 7 2 4 6 9 20 15 12 11 22 22 6 8 14 16 22 6 11 7 11 14 14 14 16
Wind_Direction
8 4 1 354 349 343 334 329 326 326 322 315 317 316 317 316 314 304 246 238 203 242 304 277 258 164 141 239 206 140 170 234 228 170 248 231 218 177 197 154 218 192 172 290 167
11 6 2 357 349 340 332 329 327 324 319 314 315 312 317 319 315 259 257 234 214 249 306 254 191 128 91 220 226 166 183 236 203 199 238 286 241 234 210 199 229 233 165 133 157
17 12 8 1 353 339 330 324 318 316 316 311 313 305 308 327 318 247 215 224 229 259 241 208 138 147 242 189 212 189 218 209 251 218 208 259 289 302 207 238 221 211 171 156 161
18 12 5 358 353 343 334 327 316 310 307 305 306 296 303 346 284 206 160 202 236 224 198 168 159 160 243 211 196 202 235 224 225 205 216 230 306 266 202 232 233 233 164 163 181
10 5 360 355 351 345 334 334 323 314 302 297 297 283 294 295 252 205 223 236 209 188 202 175 172 177 238 244 201 206 222 217 218 216 233 306 241 239 255 249 261 143 163 186 194
357 354 352 349 347 347 340 335 327 315 297 291 275 221 175 240 222 221 260 204 199 196 204 191 203 153 250 253 235 317 268 255 244 236 236 212 245 142 239 232 232 186 197 198 199
344 343 343 343 343 347 342 335 324 306 294 268 224 192 237 242 221 228 248 232 212 208 199 217 193 192 176 281 316 324 319 303 235 211 233 165 283 228 245 201 232 207 209 210 214
335 333 333 337 339 342 338 334 329 306 273 195 184 184 242 255 250 249 234 233 231 216 218 216 204 216 216 312 320 301 339 292 323 138 240 154 271 238 194 187 232 228 226 220 217
333 334 329 335 338 337 336 335 336 348 113 146 157 179 262 279 242 229 220 203 196 209 200 151 147 198 111 145 323 240 247 216 306 189 143 197 266 274 118 171 237 238 237 228 230
338 337 336 334 335 335 333 327 325 101 99 147 326 13 264 224 180 187 182 180 163 131 95 134 64 166 73 153 225 204 228 242 226 200 195 238 261 267 266 259 260 257 243 235 230
344 335 331 331 332 336 335 324 4 344 149 209 205 225 154 171 170 192 166 138 119 91 186 207 160 202 217 221 296 286 225 249 274 208 205 233 250 269 253 253 259 255 249 236 231
346 343 338 323 326 332 330 43 138 288 299 236 246 264 220 187 171 216 163 151 156 197 138 83 236 223 197 202 227 259 272 264 269 177 198 274 259 262 256 235 241 240 243 237 233
347 345 341 334 313 327 333 295 311 240 244 286 208 199 195 165 219 212 156 158 168 163 198 186 200 131 189 195 188 222 221 236 246 296 228 304 279 263 256 242 244 242 239 244 227
336 339 341 340 325 336 305 302 330 337 352 253 222 246 134 149 238 170 185 151 200 194 175 234 231 177 166 203 168 245 208 212 242 24 255 7 286 284 270 261 265 263 223 236 224
331 333 334 344 315 301 317 313 17 322 284 234 198 135 143 180 133 223 164 91 180 177 136 235 172 174 175 195 164 225 93 123 83 134 345 197 280 257 251 279 259 265 246 238 227
325 326 327 332 322 304 310 302 358 318 246 286 123 167 139 228 215 125 156 180 154 138 219 243 285 191 200 98 131 143 80 47 55 82 293 184 179 265 215 228 256 274 281 273 226
316 316 314 314 282 296 310 277 225 222 337 258 201 170 200 191 199 175 174 183 168 123 217 171 210 179 151 97 28 110 106 314 347 3 233 73 194 273 287 264 242 269 266 304 240
324 313 307 294 292 284 300 219 229 223 222 98 153 138 188 159 223 179 154 208 244 110 120 162 282 165 181 195 173 195 170 164 199 200 248 132 237 250 243 285 271 267 273 285 236
330 335 286 307 300 252 198 220 216 234 189 163 85 181 274 232 173 155 193 210 206 182 184 155 266 94 45 152 141 181 213 174 103 63 35 222 280 287 262 266 268 265 296 277 286
329 321 271 302 314 209 217 227 228 247 325 121 220 192 203 211 178 192 172 203 224 195 143 212 84 20 118 116 71 155 170 97 346 169 236 264 266 233 289 267 284 260 258 270 270
324 321 296 301 330 214 231 233 262 268 286 277 253 277 237 206 205 213 212 222 192 152 114 131 130 9 71 211 178 153 190 175 138 172 178 253 256 217 239 247 260 281 282 270 273
317 304 316 313 323 295 266 258 268 284 295 290 275 263 276 264 212 233 225 237 142 146 161 196 122 183 198 230 333 271 209 167 145 225 243 169 251 193 224 275 194 276 328 266 241
275 293 301 320 266 292 288 282 295 317 273 282 265 268 269 260 271 235 228 257 163 171 172 179 223 276 265 358 4 209 198 225 143 94 207 156 258 42 223 156 170 137 70 11 326
306 305 316 317 280 272 299 299 323 331 304 333 277 272 262 272 267 256 266 274 277 217 194 166 164 185 225 233 132 188 206 198 160 143 236 228 229 73 125 246 313 41 47 349 307
210 269 227 300 307 300 328 309 305 330 10 356 301 6 5 305 272 271 284 236 277 300 273 162 213 205 230 211 202 194 172 184 205 234 203 250 241 237 269 250 3 344 315 334 335
223 180 313 243 261 280 275 254 298 311 346 319 356 350 349 334 313 322 348 317 232 7 179 187 244 185 236 233 241 234 218 219 208 227 247 266 275 272 313 311 340 316 346 2 4
251 259 177 250 219 196 241 237 268 280 274 290 339 340 330 335 323 304 287 272 272 288 287 198 219 211 238 236 234 238 222 221 189 211 212 238 251 285 274 332 23 16 23 14 358